N511WM KMCO-KPGD

Flight info

Callsign N511WM
Flight time 0h 30m
Altitude 8000
Route FSHUN ROGAN
Aircraft BE60/L-SDFGRY/C

Departure

Time 2026-04-20 18:02
Airport Orlando International Airport (KMCO)

Arrival

Time 2026-04-20 18:32
Airport Punta Gorda Airport (KPGD)
Time Latitude Longitude Altitude Speed Heading
2026-04-20 17:45 28.42199 -81.33141 95 ft 0 kts 359°
2026-04-20 17:54 28.42208 -81.33140 95 ft 4 kts 27°
2026-04-20 17:54 28.42211 -81.33138 95 ft 1 kts 34°
2026-04-20 17:54 28.42212 -81.33105 95 ft 8 kts 97°
2026-04-20 17:54 28.42205 -81.33013 96 ft 15 kts 97°
2026-04-20 17:55 28.42138 -81.32917 97 ft 19 kts 166°
2026-04-20 17:55 28.41974 -81.32908 99 ft 27 kts 178°
2026-04-20 17:55 28.41771 -81.32910 104 ft 29 kts 178°
2026-04-20 17:55 28.41588 -81.32909 102 ft 13 kts 178°
2026-04-20 17:56 28.41537 -81.32855 102 ft 13 kts 89°
2026-04-20 17:56 28.41539 -81.32774 103 ft 3 kts 89°
2026-04-20 17:56 28.41539 -81.32773 103 ft 0 kts 89°
2026-04-20 17:59 28.41539 -81.32774 103 ft 0 kts 89°
2026-04-20 18:00 28.41539 -81.32767 103 ft 4 kts 89°
2026-04-20 18:00 28.41541 -81.32710 103 ft 10 kts 86°
2026-04-20 18:01 28.41588 -81.32663 103 ft 13 kts
2026-04-20 18:01 28.41822 -81.32661 100 ft 62 kts 359°
2026-04-20 18:01 28.42391 -81.32678 158 ft 97 kts
2026-04-20 18:01 28.43158 -81.32673 378 ft 116 kts
2026-04-20 18:02 28.43994 -81.32661 783 ft 122 kts
2026-04-20 18:02 28.44850 -81.32673 1170 ft 126 kts
2026-04-20 18:02 28.45672 -81.33046 1511 ft 138 kts 317°
2026-04-20 18:02 28.45896 -81.34135 1826 ft 158 kts 262°
2026-04-20 18:03 28.45248 -81.35154 2126 ft 166 kts 210°
2026-04-20 18:03 28.44208 -81.35704 2499 ft 165 kts 202°
2026-04-20 18:03 28.43152 -81.36210 2867 ft 164 kts 191°
2026-04-20 18:03 28.42030 -81.36451 3235 ft 165 kts 186°
2026-04-20 18:04 28.40900 -81.36719 3607 ft 166 kts 189°
2026-04-20 18:04 28.39785 -81.37031 3957 ft 165 kts 191°
2026-04-20 18:04 28.38668 -81.37341 4302 ft 165 kts 191°
2026-04-20 18:04 28.37558 -81.37650 4662 ft 163 kts 193°
2026-04-20 18:05 28.35384 -81.38263 5381 ft 159 kts 194°
2026-04-20 18:05 28.34309 -81.38566 5714 ft 160 kts 194°
2026-04-20 18:05 28.33218 -81.38871 6033 ft 162 kts 195°
2026-04-20 18:06 28.32121 -81.39175 6376 ft 163 kts 195°
2026-04-20 18:06 28.31024 -81.39483 6718 ft 163 kts 197°
2026-04-20 18:06 28.29924 -81.39797 7064 ft 163 kts 196°
2026-04-20 18:06 28.28821 -81.40106 7420 ft 163 kts 195°
2026-04-20 18:07 28.27716 -81.40413 7759 ft 164 kts 197°
2026-04-20 18:07 28.26612 -81.40722 7992 ft 172 kts 197°
2026-04-20 18:07 28.25415 -81.41059 8210 ft 178 kts 197°
2026-04-20 18:07 28.24226 -81.41388 8588 ft 173 kts 197°
2026-04-20 18:08 28.23071 -81.41711 8972 ft 169 kts 198°
2026-04-20 18:08 28.21937 -81.42029 9349 ft 167 kts 197°
2026-04-20 18:08 28.20819 -81.42342 9753 ft 165 kts 198°
2026-04-20 18:08 28.19683 -81.42661 9996 ft 177 kts 199°
2026-04-20 18:09 28.18415 -81.43021 10018 ft 198 kts 198°
2026-04-20 18:09 28.17017 -81.43414 10016 ft 215 kts 198°
2026-04-20 18:09 28.15524 -81.43833 10007 ft 225 kts 197°
2026-04-20 18:09 28.13983 -81.44259 10006 ft 231 kts 196°
2026-04-20 18:10 28.12941 -81.44548 10003 ft 234 kts 197°
2026-04-20 18:10 28.11345 -81.44996 9987 ft 238 kts 196°
2026-04-20 18:10 28.09728 -81.45451 9984 ft 241 kts 196°
2026-04-20 18:10 28.08084 -81.45900 9988 ft 244 kts 195°
2026-04-20 18:11 28.06426 -81.46361 9987 ft 245 kts 195°
2026-04-20 18:11 28.04773 -81.46825 9985 ft 244 kts 195°
2026-04-20 18:11 28.03129 -81.47285 9973 ft 243 kts 197°
2026-04-20 18:11 28.01484 -81.47748 9978 ft 243 kts 195°
2026-04-20 18:12 27.99832 -81.48205 9971 ft 246 kts 195°
2026-04-20 18:12 27.98177 -81.48663 9973 ft 244 kts 196°
2026-04-20 18:12 27.96524 -81.49128 9968 ft 245 kts 196°
2026-04-20 18:12 27.94869 -81.49594 9967 ft 245 kts 195°
2026-04-20 18:13 27.93209 -81.50050 9963 ft 245 kts 195°
2026-04-20 18:13 27.91572 -81.50574 9952 ft 244 kts 206°
2026-04-20 18:13 27.90074 -81.51466 9958 ft 244 kts 211°
2026-04-20 18:13 27.88563 -81.52351 9959 ft 246 kts 209°
2026-04-20 18:14 27.87037 -81.53228 9959 ft 247 kts 209°
2026-04-20 18:14 27.85512 -81.54123 9959 ft 246 kts 210°
2026-04-20 18:14 27.84012 -81.55006 9958 ft 246 kts 210°
2026-04-20 18:14 27.82493 -81.55893 9956 ft 246 kts 209°
2026-04-20 18:15 27.80976 -81.56780 9970 ft 245 kts 209°
2026-04-20 18:15 27.79458 -81.57669 9969 ft 246 kts 210°
2026-04-20 18:15 27.77942 -81.58554 9972 ft 245 kts 210°
2026-04-20 18:15 27.76428 -81.59440 9964 ft 245 kts 209°
2026-04-20 18:16 27.74918 -81.60322 9959 ft 244 kts 209°
2026-04-20 18:16 27.73411 -81.61201 9968 ft 245 kts 210°
2026-04-20 18:16 27.71896 -81.62086 9959 ft 245 kts 210°
2026-04-20 18:16 27.70379 -81.62973 9961 ft 246 kts 209°
2026-04-20 18:17 27.68857 -81.63861 9965 ft 246 kts 209°
2026-04-20 18:17 27.67334 -81.64749 9962 ft 247 kts 210°
2026-04-20 18:17 27.65808 -81.65638 9964 ft 247 kts 210°
2026-04-20 18:17 27.64282 -81.66529 9960 ft 247 kts 209°
2026-04-20 18:18 27.62760 -81.67416 9958 ft 246 kts 209°
2026-04-20 18:18 27.61242 -81.68300 9957 ft 245 kts 209°
2026-04-20 18:18 27.59725 -81.69184 9961 ft 246 kts 209°
2026-04-20 18:18 27.58212 -81.70059 9945 ft 244 kts 209°
2026-04-20 18:19 27.56710 -81.70936 9944 ft 242 kts 210°
2026-04-20 18:19 27.55228 -81.71811 9938 ft 240 kts 209°
2026-04-20 18:19 27.53747 -81.72671 9937 ft 239 kts 209°
2026-04-20 18:19 27.52262 -81.73522 9949 ft 239 kts 209°
2026-04-20 18:20 27.50784 -81.74386 9939 ft 241 kts 209°
2026-04-20 18:20 27.49295 -81.75256 9951 ft 241 kts 209°
2026-04-20 18:20 27.47796 -81.76122 9951 ft 244 kts 209°
2026-04-20 18:20 27.46290 -81.76988 9945 ft 246 kts 209°
2026-04-20 18:21 27.44763 -81.77874 9947 ft 248 kts 209°
2026-04-20 18:21 27.43237 -81.78772 9946 ft 246 kts 209°
2026-04-20 18:21 27.41718 -81.79654 9948 ft 245 kts 209°
2026-04-20 18:21 27.40191 -81.80539 9943 ft 248 kts 209°
2026-04-20 18:22 27.38662 -81.81431 9950 ft 248 kts 208°
2026-04-20 18:22 27.37145 -81.82311 9947 ft 245 kts 209°
2026-04-20 18:22 27.35634 -81.83177 9944 ft 243 kts 209°
2026-04-20 18:22 27.34129 -81.84048 9939 ft 243 kts 209°
2026-04-20 18:23 27.32626 -81.84923 9938 ft 243 kts 209°
2026-04-20 18:23 27.31118 -81.85800 9940 ft 245 kts 209°
2026-04-20 18:23 27.29597 -81.86674 9940 ft 245 kts 209°
2026-04-20 18:23 27.28078 -81.87553 9940 ft 246 kts 209°
2026-04-20 18:24 27.26559 -81.88433 9944 ft 245 kts 209°
2026-04-20 18:24 27.25034 -81.89281 9948 ft 245 kts 203°
2026-04-20 18:24 27.23345 -81.89824 9526 ft 261 kts 195°
2026-04-20 18:24 27.21537 -81.90333 9006 ft 273 kts 195°
2026-04-20 18:25 27.19700 -81.90880 8508 ft 263 kts 195°
2026-04-20 18:25 27.18013 -81.91381 8006 ft 244 kts 195°
2026-04-20 18:25 27.16342 -81.91875 7520 ft 252 kts 194°
2026-04-20 18:25 27.14627 -81.92381 7040 ft 257 kts 194°
2026-04-20 18:26 27.12917 -81.92888 6576 ft 258 kts 194°
2026-04-20 18:26 27.11212 -81.93389 6094 ft 247 kts 194°
2026-04-20 18:26 27.09580 -81.93872 5606 ft 238 kts 193°
2026-04-20 18:26 27.07974 -81.94345 5105 ft 233 kts 194°
2026-04-20 18:27 27.06441 -81.94796 4619 ft 230 kts 193°
2026-04-20 18:27 27.04917 -81.95246 4177 ft 220 kts 193°
2026-04-20 18:27 27.03475 -81.95670 3790 ft 210 kts 193°
2026-04-20 18:27 27.02089 -81.96077 3407 ft 202 kts 192°
2026-04-20 18:28 27.00737 -81.96475 2994 ft 199 kts 192°
2026-04-20 18:28 26.99422 -81.96862 2621 ft 192 kts 193°
2026-04-20 18:28 26.98143 -81.97240 2228 ft 188 kts 192°
2026-04-20 18:28 26.96879 -81.97610 1824 ft 187 kts 192°
2026-04-20 18:29 26.95623 -81.97982 1448 ft 186 kts 194°
2026-04-20 18:29 26.94564 -81.98784 1055 ft 187 kts 237°
2026-04-20 18:29 26.94202 -82.00093 934 ft 163 kts 271°
2026-04-20 18:29 26.94148 -82.01264 903 ft 140 kts 273°
2026-04-20 18:30 26.94094 -82.02267 899 ft 118 kts 271°
2026-04-20 18:30 26.93752 -82.03080 742 ft 115 kts 216°
2026-04-20 18:30 26.93047 -82.03358 594 ft 108 kts 166°
2026-04-20 18:30 26.92477 -82.02990 555 ft 90 kts 115°
2026-04-20 18:31 26.92322 -82.02340 472 ft 87 kts 89°
2026-04-20 18:31 26.92322 -82.01673 385 ft 84 kts 84°
2026-04-20 18:31 26.92343 -82.01013 276 ft 84 kts 89°
2026-04-20 18:31 26.92348 -82.00352 149 ft 84 kts 91°
2026-04-20 18:32 26.92351 -81.99733 36 ft 72 kts 87°
2026-04-20 18:32 26.92359 -81.99268 27 ft 50 kts 89°
2026-04-20 18:32 26.92355 -81.99056 25 ft 10 kts 92°
2026-04-20 18:32 26.92363 -81.99092 25 ft 10 kts 267°
2026-04-20 18:33 26.92359 -81.99205 26 ft 19 kts 268°
2026-04-20 18:33 26.92361 -81.99391 29 ft 28 kts 271°
2026-04-20 18:33 26.92375 -81.99529 30 ft 11 kts 355°
2026-04-20 18:33 26.92414 -81.99530 29 ft 2 kts 358°
2026-04-20 18:34 26.92464 -81.99529 29 ft 12 kts
2026-04-20 18:34 26.92523 -81.99551 28 ft 10 kts 271°
2026-04-20 18:34 26.92522 -81.99662 30 ft 15 kts 269°
2026-04-20 18:34 26.92525 -81.99697 31 ft 2 kts 251°
2026-04-20 18:35 26.92525 -81.99698 31 ft 0 kts 239°